Location: Val-d'Or
(48.1170°N, 77.7670°W)
Time: 20:17:31
(UTC-04:00)

ISS - Pass Details

Date: 21 May 2018
Orbit: 402 x 407 km, 51.6° (Epoch: 26 May)

Event Time Altitude Azimuth Distance (km) Brightness Sun altitude
Rises 22:25:50 0° 230° (SW) 2,310 0.0 -12.5°
Reaches altitude 10° 22:27:56 10° 224° (SW) 1,453 -1.1 -12.8°
Maximum altitude 22:31:05 48° 149° (SSE) 537 -3.7 -13.1°
Drops below altitude 10° 22:34:15 10° 74° (ENE) 1,458 -1.2 -13.4°
Sets 22:36:22 0° 68° (ENE) 2,320 -0.1 -13.6°
